Location: Groß Eilstorf
(52.8200°N, 9.4552°E)
Time: 04:35:00
(UTC+00:00)

ATLAS 2AS CENTAUR R/B - Pass Details

Date: 15 May 2026
Orbit: 1053 x 1158 km, 63.7° (Epoch: 6 June)

Event Time Altitude Azimuth Distance (km) Brightness Sun altitude
Rises 22:42:59 0° 302° (WNW) 3,854 6.2 -17.7°
Reaches altitude 10° 22:45:52 10° 310° (NW) 2,890 5.6 -17.8°
Maximum altitude 22:52:12 39° 18° (NNE) 1,528 4.0 -17.9°
Drops below altitude 10° 22:58:31 10° 87° (E) 2,876 4.9 -18.0°
Sets 23:01:21 0° 95° (E) 3,834 5.5 -18.0°
